Lid_Strength_Index
12 12 13 13 16 17 16 19 19 22 23 21 20 20 19 18 18 18 18 19 18 18 18 18 17 16 15 15 15 15 16 16 16 16 16 15 16 16 15 15 15 14 14 14
15 12 12 17 19 18 22 22 18 20 22 19 19 19 20 19 18 19 19 18 18 18 18 18 17 16 15 15 15 16 16 16 15 16 16 16 17 15 15 15 15 14 14 14
18 13 14 24 22 21 23 23 22 25 23 20 21 20 20 20 19 19 19 18 18 18 18 17 17 15 16 15 15 16 16 16 17 17 16 16 15 15 14 14 14 14 14 14
20 15 22 23 20 21 24 23 22 22 22 21 19 19 18 17 18 19 19 19 18 18 18 17 16 15 15 16 17 17 17 16 15 15 14 14 14 14 15 14 15 14 14 14
17 21 22 22 24 25 24 26 22 23 22 21 19 18 20 18 17 17 18 18 18 18 19 16 16 16 16 16 16 16 15 15 14 14 14 14 14 14 15 14 14 14 13 14
20 21 26 26 24 22 22 30 22 22 23 22 20 24 22 18 17 17 16 17 20 20 19 19 16 18 19 19 19 17 15 15 14 14 15 17 16 16 14 14 13 12 12 13
23 28 30 25 23 21 29 30 22 21 22 22 24 22 20 18 18 17 17 15 15 16 17 17 17 19 19 18 18 17 16 16 16 16 16 16 15 15 16 15 13 14 13 13
29 29 30 24 23 28 25 22 22 21 21 22 22 21 20 19 19 18 18 17 16 16 15 16 16 18 21 20 17 17 18 18 18 18 15 13 18 15 14 16 16 15 14 14
28 29 25 23 23 22 21 22 22 22 21 21 22 22 21 21 20 20 19 18 17 18 17 16 16 19 22 19 18 19 20 20 19 19 15 15 17 16 14 16 16 15 15 14
26 26 25 23 22 21 21 22 21 21 21 21 23 22 22 22 21 21 20 20 19 19 19 19 17 16 17 18 20 22 22 20 21 21 18 17 14 13 14 16 17 15 15 15
26 25 23 22 22 22 21 21 21 21 21 22 22 23 23 23 23 22 21 21 21 21 20 20 19 17 16 16 21 20 22 21 21 19 21 19 15 16 16 15 15 17 17 15
29 25 26 25 22 21 22 22 22 22 23 21 22 23 23 23 23 22 23 22 23 22 22 21 20 18 17 16 19 21 22 20 21 20 21 19 18 17 13 11 11 10 10 12
25 23 24 22 21 20 22 22 22 23 23 23 23 23 23 24 24 22 24 24 24 23 23 22 21 21 19 18 17 18 20 22 22 19 20 19 19 19 18 15 12 10 10 11
23 24 25 22 24 21 22 22 21 22 23 23 24 24 24 24 24 25 25 25 24 23 24 23 22 22 20 18 19 18 19 15 18 19 19 21 21 19 18 18 19 17 14 12
23 24 25 22 21 22 22 23 23 24 24 24 24 25 25 26 27 27 26 25 24 25 24 24 24 23 21 20 19 19 18 18 18 19 20 19 19 20 19 19 19 19 19 15
23 22 22 22 22 23 23 25 26 26 25 27 27 27 28 29 28 28 28 27 28 27 26 25 25 23 21 20 20 18 18 15 14 17 18 19 20 18 19 19 19 19 20 19
26 26 25 25 25 29 31 31 32 30 29 31 30 30 31 31 32 31 30 28 29 29 27 26 26 24 23 21 22 20 19 18 15 15 17 18 18 18 18 19 19 18 19 18
31 30 32 30 28 28 28 30 30 30 30 30 31 32 31 32 31 30 29 29 29 27 26 25 24 23 22 21 23 20 18 17 17 19 18 18 17 16 17 17 18 18 18 17
33 30 29 30 30 31 30 28 28 29 30 30 33 30 30 30 30 29 29 29 28 27 24 24 19 17 19 20 15 17 17 18 18 18 18 16 16 16 16 17 18 17 17 17
31 31 30 30 28 29 26 26 26 27 27 28 28 29 27 26 27 27 27 28 26 24 22 21 19 17 20 21 15 17 17 20 21 19 18 17 17 17 17 16 16 17 17 16
28 27 27 26 25 24 26 25 26 26 26 27 27 25 25 23 24 24 24 23 22 21 18 14 16 18 17 15 15 15 19 19 21 23 22 19 17 17 16 16 16 16 16 16
27 25 23 21 23 21 20 21 21 21 22 22 22 22 23 22 21 21 20 22 19 15 16 17 18 16 14 11 15 17 18 19 21 24 24 22 19 17 17 15 15 15 15 16
21 20 20 21 21 21 21 20 20 19 19 20 20 20 20 20 20 21 21 18 17 16 16 16 15 13 12 17 17 18 19 20 21 22 23 23 20 17 17 17 15 14 14 14
20 20 22 20 22 23 23 20 20 19 19 19 19 19 19 19 18 17 17 15 14 15 16 16 15 12 12 17 18 19 22 22 22 21 22 16 21 20 17 16 16 13 13 12
21 22 23 23 23 21 20 19 20 20 19 18 17 17 17 17 19 18 17 17 14 15 16 14 13 12 14 18 18 20 23 22 21 21 21 20 22 22 19 17 16 14 13 13
23 23 22 21 21 20 20 20 20 19 18 18 18 17 17 16 17 18 18 18 19 18 18 18 17 16 17 18 20 21 21 20 19 19 18 20 22 22 19 18 17 16 14 14
22 18 22 21 20 20 20 19 20 20 18 19 19 17 18 18 18 19 19 21 21 20 19 17 17 17 17 18 19 19 18 18 16 18 17 19 22 23 21 19 18 17 15 14